Time,TemperatureF,DewpointF,PressureIn,WindDirection,WindDirectionDegrees,WindSpeedMPH,WindSpeedGustMPH,Humidity,HourlyPrecipIn,Conditions,Clouds,dailyrainin,SoftwareType,DateUTC
2013-04-11 00:00:00,56.9,52.8,29.88,SW,221,0.0,0.0,86,0.00,,,0.00,Wunderground v.1.15,2013-04-11 04:00:00,
2013-04-11 00:05:00,56.6,52.8,29.88,SW,221,0.0,0.0,87,0.00,,,0.00,Wunderground v.1.15,2013-04-11 04:05:00,
2013-04-11 00:10:00,56.5,52.7,29.89,SW,221,0.0,0.0,87,0.00,,,0.00,Wunderground v.1.15,2013-04-11 04:10:00,
2013-04-11 00:20:00,56.3,52.5,29.89,SW,221,0.0,0.0,87,0.00,,,0.00,Wunderground v.1.15,2013-04-11 04:20:00,
2013-04-11 00:30:00,55.9,52.4,29.90,SW,221,0.0,0.0,88,0.00,,,0.00,Wunderground v.1.15,2013-04-11 04:30:00,
2013-04-11 00:35:00,55.7,52.2,29.90,SW,221,0.0,0.0,88,0.00,,,0.00,Wunderground v.1.15,2013-04-11 04:35:00,
2013-04-11 00:40:00,55.6,52.4,29.90,SW,221,0.0,0.0,89,0.00,,,0.00,Wunderground v.1.15,2013-04-11 04:40:00,
2013-04-11 00:45:00,55.6,52.7,29.90,SW,221,0.0,0.0,90,0.00,,,0.00,Wunderground v.1.15,2013-04-11 04:45:00,
2013-04-11 00:50:00,55.6,52.4,29.90,SW,221,0.0,0.0,89,0.00,,,0.00,Wunderground v.1.15,2013-04-11 04:50:00,
2013-04-11 01:00:00,55.4,51.9,29.90,SW,221,0.0,0.0,88,0.00,,,0.00,Wunderground v.1.15,2013-04-11 05:00:00,
2013-04-11 01:10:00,55.1,51.9,29.89,SW,221,0.0,0.0,89,0.00,,,0.00,Wunderground v.1.15,2013-04-11 05:10:00,
2013-04-11 01:15:00,54.8,51.6,29.89,SW,221,0.0,0.0,89,0.00,,,0.00,Wunderground v.1.15,2013-04-11 05:15:00,
2013-04-11 01:25:00,54.7,51.8,29.89,SW,221,0.0,0.0,90,0.00,,,0.00,Wunderground v.1.15,2013-04-11 05:25:00,
2013-04-11 01:30:00,54.5,51.6,29.89,SW,221,0.0,0.0,90,0.00,,,0.00,Wunderground v.1.15,2013-04-11 05:30:00,
2013-04-11 01:40:00,54.5,51.6,29.89,SW,221,0.0,0.0,90,0.00,,,0.00,Wunderground v.1.15,2013-04-11 05:40:00,
2013-04-11 01:50:00,54.4,51.5,29.88,SW,221,0.0,0.0,90,0.00,,,0.00,Wunderground v.1.15,2013-04-11 05:50:00,
2013-04-11 02:00:00,54.1,51.2,29.88,SW,221,0.0,0.0,90,0.00,,,0.00,Wunderground v.1.15,2013-04-11 06:00:00,
2013-04-11 02:10:00,53.6,50.7,29.88,SW,221,0.0,0.0,90,0.00,,,0.00,Wunderground v.1.15,2013-04-11 06:10:00,
2013-04-11 02:15:00,53.5,50.9,29.88,SW,221,0.0,0.0,91,0.00,,,0.00,Wunderground v.1.15,2013-04-11 06:15:00,
2013-04-11 02:20:00,53.3,50.7,29.88,SW,221,0.0,0.0,91,0.00,,,0.00,Wunderground v.1.15,2013-04-11 06:20:00,
2013-04-11 02:25:00,53.3,50.7,29.88,SW,221,0.0,0.0,91,0.00,,,0.00,Wunderground v.1.15,2013-04-11 06:25:00,
2013-04-11 02:30:00,53.2,50.6,29.88,SW,221,0.0,0.0,91,0.00,,,0.00,Wunderground v.1.15,2013-04-11 06:30:00,
2013-04-11 02:40:00,52.8,50.5,29.87,SW,221,0.0,0.0,92,0.00,,,0.00,Wunderground v.1.15,2013-04-11 06:40:00,
2013-04-11 02:50:00,52.8,50.5,29.87,SW,221,0.0,0.0,92,0.00,,,0.00,Wunderground v.1.15,2013-04-11 06:50:00,
2013-04-11 02:55:00,52.5,49.9,29.87,SW,221,0.0,0.0,91,0.00,,,0.00,Wunderground v.1.15,2013-04-11 06:55:00,
2013-04-11 03:05:00,52.5,50.5,29.86,SW,221,0.0,0.0,93,0.00,,,0.00,Wunderground v.1.15,2013-04-11 07:05:00,
2013-04-11 03:15:00,52.2,49.9,29.86,SW,221,0.0,0.0,92,0.00,,,0.00,Wunderground v.1.15,2013-04-11 07:15:00,
2013-04-11 03:25:00,51.6,49.4,29.86,SW,221,0.0,0.0,92,0.00,,,0.00,Wunderground v.1.15,2013-04-11 07:25:00,
2013-04-11 03:30:00,51.4,49.4,29.86,SW,221,0.0,0.0,93,0.00,,,0.00,Wunderground v.1.15,2013-04-11 07:30:00,
2013-04-11 03:40:00,51.1,49.4,29.85,SW,221,0.0,0.0,94,0.00,,,0.00,Wunderground v.1.15,2013-04-11 07:40:00,
2013-04-11 03:50:00,51.1,49.4,29.85,SW,221,0.0,0.0,94,0.00,,,0.00,Wunderground v.1.15,2013-04-11 07:50:00,
2013-04-11 04:00:00,51.1,49.4,29.85,SW,221,0.0,0.0,94,0.00,,,0.00,Wunderground v.1.15,2013-04-11 08:00:00,
2013-04-11 04:10:00,51.3,49.6,29.85,SW,221,0.0,0.0,94,0.00,,,0.00,Wunderground v.1.15,2013-04-11 08:10:00,
2013-04-11 04:15:00,51.1,49.4,29.85,SW,221,0.0,0.0,94,0.00,,,0.00,Wunderground v.1.15,2013-04-11 08:15:00,
2013-04-11 04:20:00,51.0,49.3,29.85,SW,221,0.0,0.0,94,0.00,,,0.00,Wunderground v.1.15,2013-04-11 08:20:00,
2013-04-11 04:30:00,50.8,49.1,29.86,SW,221,0.0,0.0,94,0.00,,,0.00,Wunderground v.1.15,2013-04-11 08:30:00,
2013-04-11 04:40:00,50.7,49.0,29.86,SW,221,0.0,0.0,94,0.00,,,0.00,Wunderground v.1.15,2013-04-11 08:40:00,
2013-04-11 04:50:00,51.0,49.6,29.86,SW,221,0.0,0.0,95,0.00,,,0.00,Wunderground v.1.15,2013-04-11 08:50:00,
2013-04-11 04:55:00,50.8,49.1,29.86,SW,221,0.0,0.0,94,0.00,,,0.00,Wunderground v.1.15,2013-04-11 08:55:00,
2013-04-11 05:00:00,50.5,49.1,29.86,SW,221,0.0,0.0,95,0.00,,,0.00,Wunderground v.1.15,2013-04-11 09:00:00,
2013-04-11 05:10:00,50.8,49.4,29.86,SW,221,0.0,0.0,95,0.00,,,0.00,Wunderground v.1.15,2013-04-11 09:10:00,
2013-04-11 05:15:00,50.7,49.0,29.86,SW,221,0.0,0.0,94,0.00,,,0.00,Wunderground v.1.15,2013-04-11 09:15:00,
2013-04-11 05:25:00,50.4,49.0,29.86,SW,221,0.0,0.0,95,0.00,,,0.00,Wunderground v.1.15,2013-04-11 09:25:00,
2013-04-11 05:30:00,50.4,49.0,29.86,SW,221,0.0,0.0,95,0.00,,,0.00,Wunderground v.1.15,2013-04-11 09:30:00,
2013-04-11 05:40:00,50.2,48.5,29.86,SW,221,0.0,0.0,94,0.00,,,0.00,Wunderground v.1.15,2013-04-11 09:40:00,
2013-04-11 05:50:00,49.8,48.4,29.86,SW,221,0.0,0.0,95,0.00,,,0.00,Wunderground v.1.15,2013-04-11 09:50:00,
2013-04-11 06:00:00,49.2,47.8,29.86,SW,221,0.0,0.0,95,0.00,,,0.00,Wunderground v.1.15,2013-04-11 10:00:00,
2013-04-11 06:05:00,48.9,47.5,29.86,SW,221,0.0,0.0,95,0.00,,,0.00,Wunderground v.1.15,2013-04-11 10:05:00,
2013-04-11 06:10:00,48.8,47.4,29.86,SW,221,0.0,0.0,95,0.00,,,0.00,Wunderground v.1.15,2013-04-11 10:10:00,
2013-04-11 06:20:00,48.6,47.5,29.86,SW,221,0.0,0.0,96,0.00,,,0.00,Wunderground v.1.15,2013-04-11 10:20:00,
2013-04-11 06:30:00,48.5,47.4,29.87,SW,221,0.0,0.0,96,0.00,,,0.00,Wunderground v.1.15,2013-04-11 10:30:00,
2013-04-11 06:40:00,48.5,47.4,29.87,SW,221,0.0,0.0,96,0.00,,,0.00,Wunderground v.1.15,2013-04-11 10:40:00,
2013-04-11 06:50:00,48.3,47.2,29.87,SW,221,0.0,0.0,96,0.00,,,0.00,Wunderground v.1.15,2013-04-11 10:50:00,
2013-04-11 07:00:00,48.3,47.2,29.87,SW,221,0.0,0.0,96,0.00,,,0.00,Wunderground v.1.15,2013-04-11 11:00:00,
2013-04-11 07:05:00,48.5,47.7,29.87,SW,221,0.0,0.0,97,0.00,,,0.00,Wunderground v.1.15,2013-04-11 11:05:00,
2013-04-11 07:15:00,48.6,47.8,29.88,SW,221,0.0,0.0,97,0.00,,,0.00,Wunderground v.1.15,2013-04-11 11:15:00,
2013-04-11 07:20:00,48.9,48.4,29.88,SW,221,0.0,0.0,98,0.00,,,0.00,Wunderground v.1.15,2013-04-11 11:20:00,
2013-04-11 07:25:00,49.5,49.0,29.88,SW,221,0.0,0.0,98,0.00,,,0.00,Wunderground v.1.15,2013-04-11 11:25:00,
2013-04-11 07:30:00,49.9,49.1,29.88,SW,221,0.0,0.0,97,0.00,,,0.00,Wunderground v.1.15,2013-04-11 11:30:00,
2013-04-11 07:40:00,50.5,50.0,29.88,SW,221,0.0,0.0,98,0.00,,,0.00,Wunderground v.1.15,2013-04-11 11:40:00,
2013-04-11 07:50:00,51.9,50.8,29.88,WSW,240,0.0,0.0,96,0.00,,,0.00,Wunderground v.1.15,2013-04-11 11:50:00,
2013-04-11 07:55:00,52.2,50.8,29.88,WSW,240,0.0,0.0,95,0.00,,,0.00,Wunderground v.1.15,2013-04-11 11:55:00,
2013-04-11 08:00:00,52.5,51.1,29.89,WSW,240,0.0,0.0,95,0.00,,,0.00,Wunderground v.1.15,2013-04-11 12:00:00,
2013-04-11 08:10:00,52.6,50.9,29.89,WSW,240,0.0,0.0,94,0.00,,,0.00,Wunderground v.1.15,2013-04-11 12:10:00,
2013-04-11 08:15:00,52.6,50.9,29.89,WSW,240,0.0,0.0,94,0.00,,,0.00,Wunderground v.1.15,2013-04-11 12:15:00,
2013-04-11 08:20:00,52.8,51.1,29.89,WSW,240,0.0,0.0,94,0.00,,,0.00,Wunderground v.1.15,2013-04-11 12:20:00,
2013-04-11 08:30:00,53.1,51.4,29.89,WSW,240,0.0,0.0,94,0.00,,,0.00,Wunderground v.1.15,2013-04-11 12:30:00,
2013-04-11 08:40:00,53.6,51.9,29.89,WSW,240,0.0,0.0,94,0.00,,,0.00,Wunderground v.1.15,2013-04-11 12:40:00,
2013-04-11 08:50:00,55.3,53.0,29.89,WSW,240,0.0,0.0,92,0.00,,,0.00,Wunderground v.1.15,2013-04-11 12:50:00,
2013-04-11 09:00:00,56.6,53.7,29.89,West,271,0.0,0.0,90,0.00,,,0.00,Wunderground v.1.15,2013-04-11 13:00:00,
2013-04-11 09:10:00,58.4,54.5,29.88,West,271,0.0,0.0,87,0.00,,,0.00,Wunderground v.1.15,2013-04-11 13:10:00,
2013-04-11 09:15:00,59.2,55.0,29.88,West,271,0.0,0.0,86,0.00,,,0.00,Wunderground v.1.15,2013-04-11 13:15:00,
2013-04-11 09:20:00,59.9,55.1,29.88,West,271,0.0,0.0,84,0.00,,,0.00,Wunderground v.1.15,2013-04-11 13:20:00,
2013-04-11 09:30:00,60.7,55.2,29.88,West,271,0.0,0.0,82,0.00,,,0.00,Wunderground v.1.15,2013-04-11 13:30:00,
2013-04-11 09:40:00,62.3,55.7,29.88,West,271,0.0,0.0,79,0.00,,,0.00,Wunderground v.1.15,2013-04-11 13:40:00,
2013-04-11 09:50:00,63.9,56.2,29.88,WNW,302,0.0,0.0,76,0.00,,,0.00,Wunderground v.1.15,2013-04-11 13:50:00,
2013-04-11 10:00:00,65.3,56.4,29.87,WNW,302,0.0,0.0,73,0.00,,,0.00,Wunderground v.1.15,2013-04-11 14:00:00,
2013-04-11 10:05:00,66.1,57.2,29.87,WNW,302,0.0,0.0,73,0.00,,,0.00,Wunderground v.1.15,2013-04-11 14:05:00,
2013-04-11 10:10:00,66.9,57.2,29.87,WNW,302,0.0,0.0,71,0.00,,,0.00,Wunderground v.1.15,2013-04-11 14:10:00,
2013-04-11 10:20:00,68.1,56.7,29.86,WNW,302,0.0,0.0,67,0.00,,,0.00,Wunderground v.1.15,2013-04-11 14:20:00,
2013-04-11 10:25:00,68.6,56.8,29.86,WSW,244,0.0,0.0,66,0.00,,,0.00,Wunderground v.1.15,2013-04-11 14:25:00,
2013-04-11 10:30:00,68.9,56.6,29.86,SW,227,0.0,0.0,65,0.00,,,0.00,Wunderground v.1.15,2013-04-11 14:30:00,
2013-04-11 10:40:00,69.4,57.1,29.86,South,184,0.0,0.0,65,0.00,,,0.00,Wunderground v.1.15,2013-04-11 14:40:00,
2013-04-11 10:45:00,69.4,57.1,29.86,SW,215,1.0,1.0,65,0.00,,,0.00,Wunderground v.1.15,2013-04-11 14:45:00,
2013-04-11 10:50:00,69.6,56.9,29.86,SW,217,0.0,0.0,64,0.00,,,0.00,Wunderground v.1.15,2013-04-11 14:50:00,
2013-04-11 11:00:00,69.9,55.8,29.86,SSW,200,1.0,1.0,61,0.00,,,0.00,Wunderground v.1.15,2013-04-11 15:00:00,
2013-04-11 11:10:00,69.9,55.8,29.86,SSW,201,1.0,1.0,61,0.00,,,0.00,Wunderground v.1.15,2013-04-11 15:10:00,
2013-04-11 11:20:00,69.8,55.3,29.86,SSW,205,1.0,1.0,60,0.00,,,0.00,Wunderground v.1.15,2013-04-11 15:20:00,
2013-04-11 11:30:00,70.1,56.5,29.85,SSW,205,0.0,0.0,62,0.00,,,0.00,Wunderground v.1.15,2013-04-11 15:30:00,
2013-04-11 11:40:00,71.8,56.2,29.85,SSW,209,1.0,1.0,58,0.00,,,0.00,Wunderground v.1.15,2013-04-11 15:40:00,
2013-04-11 11:45:00,72.1,54.5,29.85,South,188,1.0,1.0,54,0.00,,,0.00,Wunderground v.1.15,2013-04-11 15:45:00,
2013-04-11 11:50:00,72.1,54.5,29.84,South,180,0.0,0.0,54,0.00,,,0.00,Wunderground v.1.15,2013-04-11 15:50:00,
2013-04-11 12:00:00,73.3,55.1,29.84,SW,234,4.0,4.0,53,0.00,,,0.00,Wunderground v.1.15,2013-04-11 16:00:00,
2013-04-11 12:05:00,73.3,53.0,29.84,South,186,5.0,5.0,49,0.00,,,0.00,Wunderground v.1.15,2013-04-11 16:05:00,
2013-04-11 12:15:00,73.5,52.6,29.83,SW,214,2.0,3.0,48,0.00,,,0.00,Wunderground v.1.15,2013-04-11 16:15:00,
2013-04-11 12:20:00,73.9,53.0,29.83,SW,220,2.0,2.0,48,0.00,,,0.00,Wunderground v.1.15,2013-04-11 16:20:00,
2013-04-11 12:30:00,74.4,53.4,29.83,South,173,1.0,1.0,48,0.00,,,0.00,Wunderground v.1.15,2013-04-11 16:30:00,
2013-04-11 12:40:00,74.7,51.9,29.82,South,188,1.0,1.0,45,0.00,,,0.00,Wunderground v.1.15,2013-04-11 16:40:00,
2013-04-11 12:50:00,74.0,52.5,29.82,SW,220,0.0,0.0,47,0.00,,,0.00,Wunderground v.1.15,2013-04-11 16:50:00,
2013-04-11 13:00:00,74.0,53.1,29.81,SW,232,1.0,1.0,48,0.00,,,0.00,Wunderground v.1.15,2013-04-11 17:00:00,
2013-04-11 13:05:00,74.6,53.6,29.81,SW,225,2.0,3.0,48,0.00,,,0.00,Wunderground v.1.15,2013-04-11 17:05:00,
2013-04-11 13:15:00,74.9,53.9,29.80,WSW,241,2.0,2.0,48,0.00,,,0.00,Wunderground v.1.15,2013-04-11 17:15:00,
2013-04-11 13:25:00,74.9,53.3,29.79,SW,215,1.0,2.0,47,0.00,,,0.00,Wunderground v.1.15,2013-04-11 17:25:00,
2013-04-11 13:35:00,74.7,53.7,29.78,SW,226,1.0,3.0,48,0.00,,,0.00,Wunderground v.1.15,2013-04-11 17:35:00,
2013-04-11 13:45:00,74.9,53.9,29.78,WSW,242,2.0,6.0,48,0.00,,,0.00,Wunderground v.1.15,2013-04-11 17:45:00,
2013-04-11 13:55:00,76.0,53.7,29.77,SSW,202,1.0,2.0,46,0.00,,,0.00,Wunderground v.1.15,2013-04-11 17:55:00,
2013-04-11 14:00:00,76.5,55.3,29.77,SW,219,1.0,1.0,48,0.00,,,0.00,Wunderground v.1.15,2013-04-11 18:00:00,
2013-04-11 14:05:00,76.3,54.0,29.77,South,191,1.0,4.0,46,0.00,,,0.00,Wunderground v.1.15,2013-04-11 18:05:00,
2013-04-11 14:10:00,76.1,52.6,29.76,SSW,213,2.0,2.0,44,0.00,,,0.00,Wunderground v.1.15,2013-04-11 18:10:00,
2013-04-11 14:20:00,76.7,52.5,29.76,WSW,238,2.0,3.0,43,0.00,,,0.00,Wunderground v.1.15,2013-04-11 18:20:00,
2013-04-11 14:30:00,76.5,53.6,29.75,SW,236,2.0,4.0,45,0.00,,,0.00,Wunderground v.1.15,2013-04-11 18:30:00,
2013-04-11 14:35:00,76.7,55.0,29.75,SW,218,2.0,5.0,47,0.00,,,0.00,Wunderground v.1.15,2013-04-11 18:35:00,
2013-04-11 14:40:00,77.2,54.2,29.75,SW,225,2.0,3.0,45,0.00,,,0.00,Wunderground v.1.15,2013-04-11 18:40:00,
2013-04-11 14:50:00,77.9,54.2,29.73,SSW,206,4.0,4.0,44,0.00,,,0.00,Wunderground v.1.15,2013-04-11 18:50:00,
2013-04-11 14:55:00,77.4,55.0,29.73,WSW,246,3.0,4.0,46,0.00,,,0.00,Wunderground v.1.15,2013-04-11 18:55:00,
2013-04-11 15:00:00,77.6,52.0,29.73,SSW,209,2.0,2.0,41,0.00,,,0.00,Wunderground v.1.15,2013-04-11 19:00:00,
2013-04-11 15:05:00,78.1,53.1,29.73,SSW,192,2.0,2.0,42,0.00,,,0.00,Wunderground v.1.15,2013-04-11 19:05:00,
2013-04-11 15:15:00,78.5,54.1,29.73,WSW,243,3.0,7.0,43,0.00,,,0.00,Wunderground v.1.15,2013-04-11 19:15:00,
2013-04-11 15:20:00,78.6,54.2,29.72,South,188,3.0,3.0,43,0.00,,,0.00,Wunderground v.1.15,2013-04-11 19:20:00,
2013-04-11 15:30:00,78.8,52.4,29.72,SSW,212,3.0,3.0,40,0.00,,,0.00,Wunderground v.1.15,2013-04-11 19:30:00,
2013-04-11 15:35:00,78.3,54.0,29.71,South,190,2.0,4.0,43,0.00,,,0.00,Wunderground v.1.15,2013-04-11 19:35:00,
2013-04-11 15:40:00,77.2,53.0,29.71,South,182,2.0,5.0,43,0.00,,,0.00,Wunderground v.1.15,2013-04-11 19:40:00,
2013-04-11 15:50:00,76.7,52.5,29.71,SSW,192,2.0,2.0,43,0.00,,,0.00,Wunderground v.1.15,2013-04-11 19:50:00,
2013-04-11 16:00:00,78.1,52.5,29.70,SSW,199,1.0,1.0,41,0.00,,,0.00,Wunderground v.1.15,2013-04-11 20:00:00,
2013-04-11 16:10:00,78.3,53.3,29.70,SSW,198,4.0,4.0,42,0.00,,,0.00,Wunderground v.1.15,2013-04-11 20:10:00,
2013-04-11 16:15:00,77.6,52.7,29.69,South,180,5.0,5.0,42,0.00,,,0.00,Wunderground v.1.15,2013-04-11 20:15:00,
2013-04-11 16:20:00,77.0,53.4,29.69,SW,223,3.0,4.0,44,0.00,,,0.00,Wunderground v.1.15,2013-04-11 20:20:00,
2013-04-11 16:30:00,76.5,53.0,29.68,SSW,211,1.0,1.0,44,0.00,,,0.00,Wunderground v.1.15,2013-04-11 20:30:00,
2013-04-11 16:40:00,76.3,54.6,29.68,SSW,213,1.0,1.0,47,0.00,,,0.00,Wunderground v.1.15,2013-04-11 20:40:00,
2013-04-11 16:50:00,76.1,53.2,29.67,South,184,2.0,2.0,45,0.00,,,0.00,Wunderground v.1.15,2013-04-11 20:50:00,
2013-04-11 17:00:00,76.0,54.3,29.68,South,169,2.0,2.0,47,0.00,,,0.00,Wunderground v.1.15,2013-04-11 21:00:00,
2013-04-11 17:05:00,75.6,52.8,29.68,South,187,2.0,2.0,45,0.00,,,0.00,Wunderground v.1.15,2013-04-11 21:05:00,
2013-04-11 17:10:00,75.4,53.8,29.68,South,175,2.0,6.0,47,0.00,,,0.00,Wunderground v.1.15,2013-04-11 21:10:00,
2013-04-11 17:20:00,75.1,52.3,29.68,South,190,3.0,6.0,45,0.00,,,0.00,Wunderground v.1.15,2013-04-11 21:20:00,
2013-04-11 17:30:00,74.9,52.7,29.68,South,183,2.0,4.0,46,0.00,,,0.00,Wunderground v.1.15,2013-04-11 21:30:00,
2013-04-11 17:40:00,74.4,52.3,29.68,South,171,4.0,4.0,46,0.00,,,0.00,Wunderground v.1.15,2013-04-11 21:40:00,
2013-04-11 17:50:00,73.9,53.0,29.68,South,169,5.0,6.0,48,0.00,,,0.00,Wunderground v.1.15,2013-04-11 21:50:00,
2013-04-11 18:00:00,73.7,53.3,29.69,SSE,161,6.0,6.0,49,0.00,,,0.00,Wunderground v.1.15,2013-04-11 22:00:00,
2013-04-11 18:05:00,74.2,53.8,29.69,SSE,161,6.0,9.0,49,0.00,,,0.00,Wunderground v.1.15,2013-04-11 22:05:00,
2013-04-11 18:10:00,74.4,53.4,29.69,SSE,154,7.0,7.0,48,0.00,,,0.00,Wunderground v.1.15,2013-04-11 22:10:00,
2013-04-11 18:20:00,73.7,53.3,29.69,South,173,3.0,4.0,49,0.00,,,0.00,Wunderground v.1.15,2013-04-11 22:20:00,
2013-04-11 18:30:00,73.2,52.9,29.69,SSE,162,4.0,4.0,49,0.00,,,0.00,Wunderground v.1.15,2013-04-11 22:30:00,
2013-04-11 18:35:00,73.0,53.3,29.69,SSE,157,3.0,5.0,50,0.00,,,0.00,Wunderground v.1.15,2013-04-11 22:35:00,
2013-04-11 18:45:00,72.8,53.1,29.69,South,169,3.0,5.0,50,0.00,,,0.00,Wunderground v.1.15,2013-04-11 22:45:00,
2013-04-11 18:55:00,72.5,52.8,29.68,SSE,165,1.0,2.0,50,0.00,,,0.00,Wunderground v.1.15,2013-04-11 22:55:00,
2013-04-11 19:00:00,72.5,52.2,29.68,SSE,167,2.0,2.0,49,0.00,,,0.00,Wunderground v.1.15,2013-04-11 23:00:00,
2013-04-11 19:10:00,72.1,51.9,29.68,South,169,2.0,2.0,49,0.00,,,0.00,Wunderground v.1.15,2013-04-11 23:10:00,
2013-04-11 19:15:00,72.0,51.8,29.68,South,169,1.0,2.0,49,0.00,,,0.00,Wunderground v.1.15,2013-04-11 23:15:00,
2013-04-11 19:20:00,72.0,51.8,29.68,South,173,1.0,5.0,49,0.00,,,0.00,Wunderground v.1.15,2013-04-11 23:20:00,
2013-04-11 19:30:00,72.3,52.1,29.67,South,184,3.0,3.0,49,0.00,,,0.00,Wunderground v.1.15,2013-04-11 23:30:00,
2013-04-11 19:40:00,71.6,52.0,29.66,South,172,0.0,0.0,50,0.00,,,0.00,Wunderground v.1.15,2013-04-11 23:40:00,
2013-04-11 19:50:00,71.6,52.0,29.67,SSE,167,1.0,1.0,50,0.00,,,0.00,Wunderground v.1.15,2013-04-11 23:50:00,
2013-04-11 20:00:00,71.6,52.0,29.67,SSE,168,1.0,1.0,50,0.00,,,0.00,Wunderground v.1.15,2013-04-12 00:00:00,
2013-04-11 20:10:00,71.8,51.6,29.67,SSE,155,1.0,1.0,49,0.00,,,0.00,Wunderground v.1.15,2013-04-12 00:10:00,
2013-04-11 20:20:00,71.6,52.0,29.67,SSE,156,1.0,1.0,50,0.00,,,0.00,Wunderground v.1.15,2013-04-12 00:20:00,
2013-04-11 20:30:00,71.6,52.5,29.66,SSE,165,2.0,2.0,51,0.00,,,0.00,Wunderground v.1.15,2013-04-12 00:30:00,
2013-04-11 20:40:00,70.9,52.4,29.66,SSE,165,0.0,0.0,52,0.00,,,0.00,Wunderground v.1.15,2013-04-12 00:40:00,
2013-04-11 20:50:00,70.6,53.1,29.66,WSW,240,0.0,3.0,54,0.00,,,0.00,Wunderground v.1.15,2013-04-12 00:50:00,
2013-04-11 21:00:00,70.4,53.5,29.66,South,171,0.0,0.0,55,0.00,,,0.00,Wunderground v.1.15,2013-04-12 01:00:00,
2013-04-11 21:05:00,70.3,53.4,29.66,South,169,0.0,0.0,55,0.00,,,0.00,Wunderground v.1.15,2013-04-12 01:05:00,
2013-04-11 21:15:00,70.1,54.2,29.66,South,175,0.0,5.0,57,0.00,,,0.00,Wunderground v.1.15,2013-04-12 01:15:00,
2013-04-11 21:20:00,70.1,54.2,29.66,South,176,1.0,1.0,57,0.00,,,0.00,Wunderground v.1.15,2013-04-12 01:20:00,
2013-04-11 21:30:00,70.1,54.6,29.66,SSE,161,0.0,7.0,58,0.00,,,0.00,Wunderground v.1.15,2013-04-12 01:30:00,
2013-04-11 21:40:00,69.8,55.7,29.66,SSE,163,2.0,2.0,61,0.00,,,0.00,Wunderground v.1.15,2013-04-12 01:40:00,
2013-04-11 21:45:00,69.4,55.8,29.66,SSE,167,1.0,2.0,62,0.00,,,0.00,Wunderground v.1.15,2013-04-12 01:45:00,
2013-04-11 21:50:00,68.9,56.2,29.66,SSE,167,0.0,0.0,64,0.00,,,0.00,Wunderground v.1.15,2013-04-12 01:50:00,
2013-04-11 22:00:00,68.3,56.5,29.66,SSE,167,0.0,1.0,66,0.00,,,0.00,Wunderground v.1.15,2013-04-12 02:00:00,
2013-04-11 22:09:00,67.6,57.5,29.67,SSE,167,0.0,2.0,70,0.17,,,0.03,Wunderground v.1.15,2013-04-12 02:09:00,
2013-04-11 22:14:00,66.9,57.6,29.67,SSE,167,0.0,2.0,72,0.14,,,0.04,Wunderground v.1.15,2013-04-12 02:14:00,
2013-04-11 22:20:00,66.1,58.7,29.67,SSE,167,1.0,1.0,77,0.20,,,0.06,Wunderground v.1.15,2013-04-12 02:20:00,
2013-04-11 22:30:00,64.7,58.7,29.67,SSW,197,1.0,1.0,81,0.35,,,0.10,Wunderground v.1.15,2013-04-12 02:30:00,
2013-04-11 22:40:00,64.0,59.4,29.66,SSW,197,0.0,0.0,85,0.18,,,0.16,Wunderground v.1.15,2013-04-12 02:40:00,
2013-04-11 22:50:00,63.7,59.4,29.66,SSW,197,0.0,0.0,86,0.11,,,0.18,Wunderground v.1.15,2013-04-12 02:50:00,
2013-04-11 23:00:00,63.4,59.8,29.66,SSW,197,0.0,0.0,88,0.05,,,0.19,Wunderground v.1.15,2013-04-12 03:00:00,
2013-04-11 23:10:00,63.2,60.2,29.66,SSW,197,0.0,0.0,90,0.07,,,0.20,Wunderground v.1.15,2013-04-12 03:10:00,
2013-04-11 23:15:00,63.1,60.1,29.66,SSW,197,0.0,0.0,90,0.26,,,0.22,Wunderground v.1.15,2013-04-12 03:15:00,
2013-04-11 23:20:00,62.9,60.2,29.66,SSW,197,0.0,0.0,91,0.23,,,0.24,Wunderground v.1.15,2013-04-12 03:20:00,
2013-04-11 23:25:00,62.7,60.0,29.66,SSW,197,0.0,0.0,91,0.26,,,0.26,Wunderground v.1.15,2013-04-12 03:25:00,
2013-04-11 23:30:00,62.7,60.0,29.66,SSW,197,0.0,0.0,91,0.68,,,0.30,Wunderground v.1.15,2013-04-12 03:30:00,
2013-04-11 23:40:00,62.4,60.3,29.66,SSW,197,0.0,0.0,93,0.26,,,0.34,Wunderground v.1.15,2013-04-12 03:40:00,
2013-04-11 23:50:00,62.3,60.2,29.66,SSW,197,0.0,0.0,93,0.68,,,0.44,Wunderground v.1.15,2013-04-12 03:50:00,